KAITUO 1B

Last updated on Mon Jan 22 2024 00:02:58 GMT+0000 (Greenwich Mean Time)

1 40912U 15049P 24021.14973936 .07252078 25248-5 12729-2 0 9996 2 40912 97.3710 53.7482 0005230 242.4971 117.5794 16.32832684463621
UTC large
Height (km)
Speed (km/s)
/
Latitude / Longitude
Inclination (degrees)
Orbital Period (minutes)
Azimuth
Elevation
Range (km)
Doppler Factor

Next 0 passes for location: London (51.5072 / 0.1276)

Sorry there are no passes over London.